Theta_e
326 326 326 325 325 324 323 323 323 323 323 322 322 321 321 321 321 321 321 321 321 320 321 321 321 321 320 320 320 321 323 323 323 322 322 320 320 319 318 318 317 316 315 315 314 314 315 316 316 315 314 314 314 313 312 311 310 309 307 306 304 303 303 303 302 301 299 298 297
325 325 325 325 324 324 323 323 323 323 322 322 322 322 321 321 321 321 321 320 321 320 321 320 320 320 320 319 320 321 321 322 322 322 322 321 320 319 318 318 317 316 315 315 314 315 315 316 315 314 312 312 312 311 309 307 308 307 306 304 302 302 302 302 301 300 299 298 298
325 325 325 325 324 324 323 322 322 322 322 322 322 322 322 321 321 321 321 321 320 320 320 320 320 320 320 319 320 320 321 321 322 322 322 321 320 320 319 318 317 317 316 316 315 316 316 315 315 314 312 311 311 310 308 305 305 305 304 303 302 302 302 302 301 300 299 299 300
325 325 324 324 323 323 323 323 322 321 321 321 321 321 322 321 321 321 320 320 319 319 320 320 321 320 320 320 319 319 320 321 322 322 322 322 321 320 319 319 318 317 317 317 316 316 315 314 314 313 313 312 312 311 308 306 306 305 304 303 303 304 304 304 303 303 303 302 303
325 325 325 324 323 323 323 323 322 321 321 321 321 321 321 321 320 320 320 320 320 320 320 320 321 321 321 320 319 319 319 319 321 322 322 321 321 321 320 319 318 318 317 317 316 316 315 314 313 312 312 312 311 310 308 308 307 306 304 303 304 304 304 304 304 304 305 304 304
324 325 324 324 323 323 323 323 322 322 322 322 321 321 321 321 320 320 321 321 320 319 319 320 320 320 320 319 318 319 319 319 321 322 322 321 321 320 319 319 318 318 317 316 315 315 314 314 313 312 312 312 311 311 311 310 309 308 306 305 304 305 305 304 304 304 304 304 304
324 324 324 324 323 323 323 322 322 322 322 322 321 320 320 320 320 320 320 320 320 319 319 320 320 319 320 319 318 318 318 319 321 321 322 321 321 320 319 319 318 317 316 316 315 315 314 314 313 313 312 313 312 311 311 311 310 309 308 306 304 304 304 304 303 303 304 304 303
324 324 324 324 323 323 322 322 322 322 322 322 321 320 320 320 319 319 320 320 320 320 320 320 319 319 319 318 318 318 318 320 321 321 321 321 320 320 319 318 317 316 315 315 315 314 314 314 313 312 312 311 311 310 310 310 310 308 307 305 304 303 303 303 303 302 303 303 302
324 324 323 323 323 323 322 322 322 322 322 321 320 320 319 319 319 319 320 320 320 320 320 319 319 318 318 318 318 318 319 320 320 320 320 320 319 318 318 317 316 315 315 315 314 314 313 313 312 311 311 310 310 310 309 309 309 308 306 305 304 302 302 302 301 301 301 301 301
323 323 323 323 323 323 322 322 322 322 321 320 320 320 319 319 319 320 320 320 320 319 319 318 318 318 318 318 318 318 319 319 319 319 318 319 318 317 317 316 315 314 314 314 314 314 313 312 311 311 310 310 310 309 309 308 308 306 305 304 303 302 301 300 300 300 300 301 301
323 323 323 323 323 322 322 322 322 321 321 320 320 319 319 319 319 320 320 320 319 318 318 318 318 318 318 318 318 318 319 319 318 318 318 317 317 316 316 315 315 314 314 314 314 313 312 312 311 310 309 309 309 308 308 308 307 305 304 303 302 301 300 298 299 299 299 299 299
322 323 323 323 323 322 322 322 322 321 320 320 320 320 320 320 319 319 320 319 318 318 318 318 318 318 318 318 318 318 318 317 317 317 316 316 316 316 315 315 314 313 313 313 312 312 312 311 310 309 308 308 308 308 307 306 305 304 304 303 302 301 300 299 298 298 298 298 298
322 322 322 322 322 322 322 322 321 321 320 320 320 320 320 320 319 319 319 318 318 318 318 318 319 319 318 318 318 318 318 317 316 316 316 315 315 315 314 314 314 313 313 312 312 312 311 311 310 309 308 308 307 306 306 305 305 304 303 302 301 301 300 299 298 298 297 297 297
322 322 322 322 322 322 321 321 321 321 320 320 320 320 320 319 319 319 319 319 318 318 318 318 318 319 319 319 318 318 317 317 316 316 315 315 315 314 314 314 313 313 313 312 312 312 311 310 309 308 308 307 306 305 304 304 304 304 303 301 301 300 300 299 298 297 297 297 297
321 321 321 322 322 322 321 321 321 320 320 320 320 320 320 320 320 320 319 319 319 319 319 319 319 319 319 318 318 317 317 316 316 315 315 314 314 314 313 313 313 313 312 312 311 311 311 310 309 308 307 306 305 304 304 304 304 303 303 301 301 301 300 299 298 297 297 296 296
321 321 321 321 322 322 321 321 321 320 320 320 320 320 320 320 320 320 319 319 319 319 320 320 320 320 319 318 317 317 317 316 316 316 315 315 314 313 313 313 313 312 312 311 311 311 310 309 309 308 307 305 305 304 304 304 303 301 301 301 301 301 300 300 299 297 297 296 296
320 321 321 321 321 321 321 321 321 320 320 320 320 320 320 320 320 320 320 320 320 320 320 320 319 319 318 317 317 317 317 316 317 316 316 315 314 313 313 313 312 311 311 311 310 310 309 309 308 307 306 305 305 304 303 302 301 301 301 301 301 301 300 300 299 297 297 296 296
320 320 321 321 321 320 320 320 320 319 319 320 320 320 320 320 320 320 320 321 321 320 319 319 319 318 317 317 317 317 317 317 317 317 316 315 314 314 313 312 312 311 311 310 310 309 308 306 305 305 305 304 304 303 302 301 301 301 301 301 300 300 300 299 298 297 297 296 296
320 320 321 320 321 320 320 319 319 319 319 320 320 320 320 320 320 320 320 320 320 319 319 318 317 317 316 316 317 317 317 317 317 317 316 316 315 314 313 311 310 310 309 309 308 307 307 305 304 303 303 304 303 303 301 301 301 301 300 300 299 299 299 298 298 297 297 296 296
320 320 320 320 320 320 319 319 319 319 319 320 320 320 320 320 319 319 320 320 319 318 318 317 316 316 316 316 316 317 317 317 317 317 316 315 314 313 311 310 309 308 307 307 307 307 307 305 305 304 304 303 303 303 302 301 301 301 300 299 299 298 298 298 297 297 297 296 296
320 320 320 320 320 320 319 319 319 319 320 320 319 319 319 319 319 319 319 319 319 318 317 316 316 316 316 317 317 317 317 317 316 315 315 313 312 311 310 310 309 308 307 306 306 306 306 305 305 304 303 303 303 303 302 301 301 300 299 299 299 298 298 298 297 297 296 296 295
320 320 320 320 319 319 319 319 319 320 320 319 319 319 319 319 318 319 319 318 318 317 316 316 316 316 317 317 317 317 316 315 315 313 313 311 310 310 310 309 309 308 307 306 305 305 305 305 305 304 303 303 301 301 301 301 300 299 299 298 298 298 298 297 297 297 296 296 295
320 320 320 320 319 319 319 319 320 319 319 319 319 318 318 318 318 318 318 318 317 317 317 317 317 317 317 317 316 316 314 314 312 312 310 310 309 309 309 309 308 307 306 305 303 303 303 303 303 302 301 300 298 300 301 300 300 299 298 298 297 297 297 297 297 296 296 296 296
320 320 320 320 319 319 319 319 319 319 319 318 318 318 318 318 317 317 317 317 317 317 317 318 318 317 316 316 315 314 312 311 310 309 309 308 308 308 307 307 307 306 304 303 301 302 302 301 299 298 298 297 299 299 300 299 297 297 298 297 297 297 297 296 296 296 296 295 295
320 320 319 319 319 319 319 319 319 319 318 318 318 317 317 317 317 317 317 317 318 317 317 317 316 315 315 314 313 312 311 310 309 308 308 308 308 308 307 306 305 304 304 304 305 305 304 302 300 298 297 297 299 299 298 296 296 297 298 297 297 296 296 296 296 296 295 293 292
319 319 319 319 318 319 319 319 318 318 318 318 317 317 317 317 317 318 318 317 317 316 315 314 313 313 313 313 312 312 311 310 309 308 308 307 307 306 306 306 305 305 305 306 307 307 306 305 303 300 298 297 297 296 295 293 294 295 296 297 297 296 295 295 295 295 294 292 292
319 318 318 318 318 318 318 318 318 318 317 317 316 317 317 317 317 317 316 315 314 313 313 312 312 312 312 312 311 311 310 309 309 308 308 307 306 305 304 304 304 305 305 307 308 307 306 305 304 301 299 296 295 294 293 293 292 293 294 297 296 296 295 294 294 294 294 293 293
318 318 318 318 318 318 318 318 317 317 317 317 316 316 316 316 315 314 313 312 312 311 312 311 312 312 312 311 310 310 308 308 308 307 306 305 304 303 303 303 304 305 307 308 308 307 306 305 304 302 300 297 295 293 292 291 293 295 297 296 296 294 293 293 293 293 293 293 292
318 318 317 317 317 317 317 317 316 317 317 316 315 315 315 314 313 313 312 311 311 311 312 312 312 312 311 310 309 308 306 305 305 304 303 301 301 301 301 302 303 305 307 308 307 306 305 305 304 303 302 300 296 293 292 292 294 296 296 296 295 294 293 293 293 293 293 292 291
318 317 317 317 317 316 316 316 316 316 316 315 314 313 313 312 312 311 311 311 311 311 311 311 311 310 309 308 307 306 305 304 303 302 300 300 300 301 301 302 302 304 306 307 306 306 305 305 304 303 302 301 297 294 292 290 291 291 292 294 294 294 293 293 293 292 291 290 289
317 317 316 316 316 316 316 316 316 315 315 314 313 312 312 311 311 311 311 311 310 310 309 309 308 308 307 306 305 304 303 302 301 301 300 300 301 301 301 300 301 303 305 307 306 306 305 305 304 303 302 301 298 294 291 289 289 289 289 292 293 293 293 294 292 290 289 288 286
316 316 316 315 315 315 316 316 315 314 313 312 312 312 311 311 311 310 310 310 309 309 308 307 306 306 305 304 304 302 301 300 300 300 300 300 300 300 300 300 301 302 304 306 306 305 305 305 304 304 303 301 297 293 290 290 289 288 289 291 293 293 293 293 289 288 287 285 283
316 315 315 315 315 315 315 314 314 313 312 312 311 311 310 310 310 309 309 309 308 307 307 306 306 305 304 302 301 300 299 299 299 300 300 300 300 300 300 300 301 302 304 305 305 305 304 304 304 303 302 299 295 292 290 290 289 289 289 290 292 293 292 291 288 287 287 284 284
315 315 314 314 314 314 313 313 312 312 311 311 310 310 309 309 308 308 308 308 307 307 307 306 305 304 302 302 300 299 299 299 299 299 299 299 299 299 300 300 301 303 304 304 304 304 303 303 303 302 300 298 294 292 290 289 289 288 288 289 290 291 292 292 290 289 288 286 286
314 314 313 313 313 312 312 311 311 311 310 309 309 309 308 308 308 307 307 307 307 306 305 305 304 303 302 301 300 299 298 298 298 298 298 299 299 299 300 300 301 302 304 304 303 303 302 302 301 300 299 296 293 290 289 288 288 287 287 287 288 290 291 292 291 291 290 289 287
313 313 312 312 312 311 311 311 310 310 309 308 308 307 307 307 307 307 307 306 306 305 304 303 302 301 300 299 299 298 298 297 297 298 299 299 299 299 300 300 301 302 303 303 303 302 301 301 300 299 296 293 290 289 288 288 287 287 287 287 287 288 289 289 289 289 288 289 288
312 312 311 311 311 310 310 310 309 309 308 308 307 307 306 306 306 306 306 305 304 303 302 301 300 299 299 298 298 298 298 298 298 298 299 300 299 299 300 300 300 301 302 303 302 301 300 299 299 297 294 290 288 288 288 288 287 287 287 287 286 286 286 287 287 287 287 288 288
311 311 310 310 310 310 309 309 308 308 307 307 307 306 306 306 305 305 305 304 302 301 300 300 299 298 298 298 298 298 299 299 300 300 300 299 300 300 299 299 299 300 301 302 302 301 300 299 298 296 293 289 287 288 288 288 287 287 287 287 286 286 286 287 287 287 288 289 292
310 310 310 309 309 309 309 308 308 307 307 306 306 306 305 305 305 304 304 303 302 300 299 298 298 298 298 298 298 299 299 299 300 300 299 299 299 300 299 298 299 299 300 302 301 300 299 299 298 296 294 290 288 288 288 288 287 287 287 287 287 286 285 286 286 287 287 289 295
310 310 309 309 309 308 308 308 307 307 307 306 305 305 305 304 304 303 303 302 301 299 298 298 297 298 298 298 298 298 298 298 299 299 299 299 299 299 299 297 297 297 299 301 302 301 300 299 298 297 294 290 288 288 288 288 287 287 287 287 287 286 286 285 286 286 286 286 292
309 309 309 308 308 308 308 307 307 306 306 305 305 304 304 303 303 302 301 300 299 299 298 297 297 297 297 298 298 297 297 297 297 298 298 298 298 298 297 295 295 294 296 299 301 301 300 299 298 297 294 290 288 288 288 288 288 287 286 285 286 286 286 285 286 286 286 285 287
Wind_Speed
12 12 11 10 9 9 8 7 7 7 8 8 8 8 8 8 8 8 7 7 7 7 6 6 6 6 6 7 8 8 8 8 9 9 8 8 8 8 8 9 9 9 9 8 8 7 7 7 6 4 3 3 3 3 3 3 4 4 5 5 5 5 5 6 6 5 4 3 3
13 13 11 10 10 8 7 7 7 7 8 8 8 8 8 8 8 8 7 7 7 6 6 5 6 6 7 7 8 8 8 8 9 9 9 8 8 8 8 8 9 9 9 9 8 7 6 6 5 4 3 3 3 3 2 2 3 4 4 4 3 4 4 5 5 4 4 3 2
13 13 12 11 10 10 9 8 8 9 9 8 7 8 8 8 7 7 7 7 7 6 6 5 6 6 7 8 7 7 7 8 9 9 9 8 8 8 8 8 9 9 9 9 8 7 6 6 5 5 4 3 4 3 3 2 3 3 3 3 2 3 3 3 3 3 3 2 2
14 13 12 12 13 12 11 10 10 10 10 8 7 7 7 7 6 6 6 6 6 6 6 6 6 6 7 7 7 7 7 8 9 9 9 8 8 8 8 8 9 9 9 9 8 7 7 6 4 4 4 4 4 4 3 3 3 3 2 2 2 2 3 3 3 3 3 3 2
14 13 13 12 14 13 12 10 11 11 10 8 8 7 7 6 6 6 6 6 6 6 6 7 7 7 7 7 8 8 7 8 9 9 8 8 8 8 8 8 9 9 8 8 8 7 6 6 4 3 3 4 4 4 4 5 4 3 3 2 2 2 3 3 3 3 2 2 2
14 14 13 12 13 12 11 10 11 11 10 9 9 9 8 7 6 7 7 7 7 7 7 8 7 7 7 7 8 8 7 8 8 8 8 9 8 8 8 9 9 8 7 7 7 7 7 6 4 3 3 4 3 4 5 6 5 4 3 2 2 2 2 3 2 2 2 2 2
14 14 13 12 13 12 11 10 11 11 10 9 10 11 10 9 8 9 9 8 7 7 7 7 7 7 7 7 7 7 7 7 8 8 8 8 8 8 8 8 8 8 7 7 7 7 7 6 4 4 4 4 4 4 5 5 5 4 4 3 2 2 2 3 2 2 3 3 3
13 13 13 12 12 12 12 12 11 11 10 9 10 11 11 10 10 10 9 8 7 7 7 7 7 8 8 8 8 7 7 8 8 7 7 8 8 8 8 8 8 8 8 8 8 8 7 5 5 4 4 4 4 4 5 6 5 5 4 3 2 2 2 2 2 2 3 3 3
12 12 12 12 12 12 12 12 12 11 11 10 11 11 11 11 11 10 9 8 7 7 7 7 8 9 9 9 8 8 8 8 7 7 7 7 8 8 8 8 8 8 8 8 8 8 8 5 4 4 4 4 4 4 5 5 6 5 5 4 3 3 2 2 2 3 3 3 3
13 12 12 12 12 12 12 12 12 12 11 11 11 11 11 11 11 10 9 8 7 7 7 7 8 8 9 9 8 8 7 7 7 7 7 8 9 9 9 8 9 9 8 8 8 8 7 6 5 4 4 4 5 5 5 6 6 6 4 3 3 3 3 3 3 3 3 3 2
14 13 13 12 12 12 12 12 11 11 11 11 11 11 10 10 10 9 8 7 7 8 8 8 8 9 9 8 8 8 7 7 7 8 8 9 9 10 9 9 9 9 8 7 7 7 6 5 5 6 5 5 5 6 6 6 6 6 5 4 4 4 4 3 3 3 3 3 2
14 13 13 12 13 12 12 12 11 10 10 10 11 10 10 10 9 9 8 8 8 8 8 8 9 9 9 8 8 8 8 8 9 9 9 10 10 10 10 10 10 9 8 7 6 6 6 6 6 6 6 5 5 5 5 6 7 6 6 5 4 4 4 3 3 3 3 3 2
14 13 13 12 13 13 12 12 10 10 10 11 10 10 9 9 9 9 9 9 9 8 8 8 9 9 9 8 8 8 9 9 10 10 10 10 10 10 10 10 9 9 8 7 6 6 6 6 7 7 7 6 4 4 5 6 6 6 6 5 5 4 4 4 3 3 3 3 2
14 13 13 13 13 13 12 12 10 10 10 11 10 10 9 8 8 9 9 9 9 9 8 8 8 8 9 9 9 9 10 10 11 11 11 10 10 10 10 9 9 8 8 6 6 7 7 7 7 7 7 6 5 5 5 5 6 6 6 6 5 5 4 4 4 3 3 3 2
14 14 14 14 14 13 12 11 10 9 10 10 10 9 8 8 8 9 9 10 10 9 9 8 8 8 9 10 10 10 10 10 11 11 11 11 11 10 10 10 9 8 8 7 7 7 7 7 7 7 7 7 6 6 5 5 5 5 5 5 5 5 5 4 4 4 4 3 3
14 14 14 14 14 13 12 11 9 9 9 10 10 9 8 8 8 9 10 10 10 9 9 9 9 9 9 10 10 10 10 10 11 11 11 11 11 11 10 10 9 9 8 8 7 7 7 7 7 7 7 7 6 6 5 5 5 5 5 5 5 5 5 5 5 5 4 4 3
14 14 14 15 14 14 13 11 10 9 9 10 10 9 9 8 8 9 10 11 10 10 10 10 9 9 9 9 9 9 9 10 10 10 11 11 11 11 10 10 9 9 9 9 8 7 7 6 6 6 6 6 6 6 5 5 5 5 4 4 4 4 4 5 5 4 4 3 3
15 15 15 15 15 14 13 12 11 10 10 11 10 10 9 9 9 9 10 11 11 11 11 10 10 10 10 10 9 8 8 9 9 10 10 10 11 11 10 10 9 9 9 9 8 8 7 7 6 6 6 6 6 5 5 5 5 5 4 4 4 4 4 4 4 4 3 3 3
15 15 15 15 15 14 13 12 12 11 11 11 10 10 10 10 10 10 10 10 11 12 12 11 10 10 10 10 9 8 8 8 9 10 10 10 10 10 10 10 9 9 8 9 8 8 8 7 7 6 6 6 6 5 5 5 5 5 5 5 5 5 5 5 4 4 3 3 3
15 15 15 15 15 14 13 13 12 12 11 11 11 11 11 11 11 11 11 11 12 13 13 12 11 11 10 10 10 9 8 8 9 10 10 10 10 10 10 9 9 8 8 8 8 8 8 8 7 7 7 7 7 7 6 6 6 6 6 5 5 5 5 5 4 4 3 3 3
16 15 15 15 14 14 13 12 12 12 12 11 12 12 12 11 11 12 12 12 13 13 13 13 12 12 11 11 11 10 9 8 9 10 10 10 10 10 9 9 9 8 8 8 8 8 8 8 8 7 7 7 7 7 7 6 6 6 6 5 5 5 5 5 4 4 3 3 3
15 15 15 14 14 13 13 12 12 12 12 12 12 12 12 12 12 13 13 14 14 14 13 13 13 13 12 12 12 11 10 9 9 9 9 9 9 9 9 9 9 9 8 8 8 8 8 8 8 8 7 7 7 7 7 7 7 6 6 5 5 5 5 4 4 3 3 3 3
15 15 14 13 13 13 13 12 12 12 13 13 13 13 13 13 13 14 14 14 14 13 13 12 13 13 13 12 12 11 11 10 10 10 9 9 9 9 9 8 9 9 8 7 7 7 7 7 8 8 7 7 7 7 7 7 7 6 6 5 5 5 4 3 3 3 3 3 2
15 14 13 12 13 13 13 13 13 13 13 13 14 14 14 14 14 15 15 14 14 13 13 11 12 12 13 12 12 12 12 12 11 11 10 10 9 9 9 8 8 8 7 6 6 7 7 6 6 6 7 7 7 7 7 7 6 6 5 5 5 4 4 3 3 3 3 2 2
15 15 14 13 13 13 13 14 14 14 14 14 14 14 15 15 15 15 15 15 14 13 13 12 12 12 12 12 12 12 12 12 12 11 11 10 10 9 9 7 7 6 6 6 9 11 10 8 7 6 6 6 6 7 6 6 6 6 5 5 4 4 3 3 2 2 2 2 1
15 15 14 14 13 14 14 14 14 15 15 15 15 15 15 15 14 15 15 14 14 13 13 12 11 11 11 12 12 12 11 11 11 11 11 11 10 9 8 7 6 5 6 8 12 13 13 12 10 8 7 6 6 6 6 5 5 5 5 5 4 4 3 3 2 2 2 2 2
15 15 14 14 14 14 15 15 15 15 15 15 15 15 14 14 14 14 15 14 14 13 12 11 11 11 12 12 12 12 11 10 10 10 10 11 11 10 8 7 6 6 7 12 14 15 15 14 13 12 9 7 7 6 6 5 5 5 5 4 4 4 3 3 2 2 1 1 2
15 15 15 14 15 15 15 15 15 16 16 16 15 15 14 14 15 15 15 15 14 13 12 11 10 10 10 10 11 11 11 10 9 9 10 10 10 9 8 7 6 7 9 14 16 16 16 16 15 14 11 9 7 6 6 6 5 5 4 4 4 4 4 3 2 2 1 1 1
16 15 15 15 15 15 15 16 16 16 16 16 15 15 15 15 15 15 15 15 14 13 11 10 9 8 9 9 10 10 10 10 9 9 9 10 10 9 8 8 7 9 12 16 16 16 16 16 15 14 13 10 7 5 5 4 4 4 4 4 4 4 4 3 2 2 2 1 1
16 16 16 16 16 16 16 16 17 16 16 15 15 15 16 15 16 16 15 15 14 12 10 9 9 10 10 10 10 10 10 9 9 10 10 11 10 10 9 8 7 9 12 16 16 16 16 16 15 15 13 12 8 6 5 4 4 4 4 4 4 4 4 3 3 2 2 1 1
16 16 16 17 17 17 17 17 17 16 16 15 16 16 16 16 15 15 14 13 12 11 10 11 11 12 12 11 10 10 10 10 10 10 11 11 11 11 10 9 8 10 12 16 16 16 16 15 15 14 14 12 8 6 5 5 5 4 4 4 4 4 4 3 3 3 2 2 2
16 17 17 18 17 17 17 17 17 16 16 17 17 16 16 15 14 13 13 12 12 12 12 13 13 13 12 11 11 10 10 10 10 10 11 11 12 11 10 9 9 10 13 16 16 16 15 15 14 14 13 12 9 7 6 5 5 5 5 5 5 5 5 5 4 4 4 3 3
17 18 18 18 18 18 17 17 17 17 17 17 17 16 15 14 13 13 12 11 12 13 14 14 14 13 13 12 12 11 10 10 11 11 12 12 12 12 11 9 8 10 13 16 16 15 15 14 14 14 13 12 9 7 6 6 5 5 5 6 6 6 7 7 6 6 6 6 5
18 19 19 18 18 18 17 17 17 17 17 17 16 15 15 14 14 13 12 11 11 11 12 13 13 12 11 12 11 11 11 10 11 11 12 12 12 12 11 8 8 10 14 16 15 15 15 15 15 15 14 13 9 8 7 8 6 6 6 7 7 7 7 8 7 7 8 7 7
19 19 19 18 18 17 17 17 17 17 17 16 15 15 14 14 14 13 12 12 11 11 11 11 11 11 11 11 11 12 12 12 11 11 12 12 12 12 11 9 9 11 14 15 15 15 16 16 16 16 14 11 8 7 8 8 8 8 8 8 8 8 8 8 8 8 7 7 7
19 20 19 19 18 18 17 17 17 17 17 16 16 15 14 14 13 13 13 13 13 12 12 12 12 12 12 11 11 11 12 12 12 12 12 12 12 12 12 11 11 12 14 15 15 16 16 17 17 16 13 10 7 7 7 7 7 8 8 9 8 8 8 8 7 7 7 7 6
19 19 19 19 19 18 18 18 18 17 17 16 16 15 15 14 13 12 12 13 13 13 13 12 12 12 12 12 11 11 11 12 13 12 12 11 12 12 12 12 11 11 12 14 15 16 16 17 16 15 12 9 7 7 7 7 6 7 8 8 7 7 7 7 6 6 6 7 7
18 19 19 19 19 18 18 18 17 17 17 16 15 15 14 14 13 12 12 12 13 14 13 13 13 13 13 13 12 12 11 12 13 13 12 11 11 12 12 12 10 10 10 13 14 15 16 17 16 15 12 8 7 7 7 6 6 7 7 7 6 6 6 5 5 5 6 8 10
18 18 19 19 19 18 18 18 17 17 17 16 15 14 14 13 12 11 11 11 12 13 14 14 14 13 13 13 13 12 12 11 12 12 12 11 11 11 12 12 9 9 9 12 13 15 16 17 16 15 13 9 8 7 7 7 7 7 7 6 6 6 6 5 5 5 6 8 13
18 18 18 18 18 18 18 17 17 16 16 15 15 15 14 13 12 12 11 11 12 13 14 14 14 14 13 13 13 13 12 11 11 11 11 11 11 12 12 10 9 8 8 10 12 14 16 17 17 15 13 9 7 7 6 7 7 7 7 6 6 6 6 6 5 5 5 6 10
17 18 18 18 17 17 17 17 16 15 15 15 15 14 13 13 13 12 12 11 12 12 13 13 14 14 13 13 12 13 13 12 11 10 11 11 11 11 10 9 8 7 7 8 11 14 16 17 17 15 13 9 7 6 6 6 7 7 7 6 6 6 5 5 6 6 6 6 6
Wind_Direction
181 181 180 178 178 177 178 178 176 175 176 178 178 177 178 179 181 182 183 183 186 188 190 192 193 192 190 189 189 189 189 186 184 183 182 179 176 172 169 168 169 172 175 177 177 179 182 184 180 174 168 169 164 163 165 167 171 174 178 183 185 183 180 181 184 182 181 185 183
181 180 178 176 174 174 173 174 174 175 177 179 178 177 176 178 180 180 181 183 185 185 186 188 187 186 185 185 184 183 182 180 180 181 180 177 172 166 164 165 167 170 172 173 175 177 180 178 169 161 154 149 141 134 125 104 134 148 158 169 170 166 165 170 170 166 162 168 164
180 178 177 175 174 173 173 174 175 176 176 177 176 175 175 177 179 179 180 182 181 181 180 182 183 181 181 180 180 178 177 176 177 180 181 179 171 165 162 163 165 168 170 172 175 176 176 170 162 158 154 150 142 130 112 79 98 117 131 143 142 140 142 147 141 135 133 138 134
179 178 177 176 174 174 174 175 174 174 173 173 171 172 173 176 177 176 176 176 175 176 179 180 179 178 177 175 175 174 173 172 175 178 180 179 172 166 162 161 163 166 169 171 172 171 167 159 154 152 151 148 142 131 115 94 91 92 95 103 104 113 119 122 118 118 118 118 113
179 179 178 177 175 173 173 172 171 171 171 169 169 170 173 174 173 172 171 173 177 179 178 174 174 175 174 171 170 170 170 170 173 176 178 177 172 167 162 158 160 163 165 165 163 158 150 140 131 126 126 125 120 115 109 103 94 87 77 65 71 88 100 103 104 106 107 103 99
179 179 178 176 172 170 169 168 167 168 168 168 169 170 172 173 172 172 173 175 177 174 171 168 170 170 169 166 167 167 168 170 174 177 177 176 172 166 160 156 157 157 155 150 144 138 131 123 114 106 102 102 100 103 105 104 100 95 87 72 65 74 87 96 103 107 112 119 136
178 177 175 172 170 168 166 164 165 166 167 167 169 171 171 171 170 171 171 171 170 168 168 168 169 168 166 166 166 166 167 171 175 176 174 173 169 165 159 154 151 146 140 134 130 127 124 122 118 113 108 106 107 108 110 111 112 110 106 97 81 83 94 108 114 121 131 146 158
176 174 172 168 168 166 163 161 163 165 167 168 170 170 168 166 166 167 166 166 167 168 169 169 168 167 166 167 167 167 167 170 172 171 168 164 161 156 152 146 141 135 132 128 127 126 126 124 123 123 121 116 116 117 119 120 121 119 118 113 100 94 101 115 113 117 126 137 141
174 172 169 166 166 164 162 160 162 165 167 168 168 166 164 161 162 163 164 166 167 168 167 166 165 164 163 164 164 164 165 166 164 160 156 152 149 147 143 139 134 131 129 129 129 128 127 124 124 125 126 124 125 127 129 127 123 121 120 119 112 102 96 98 100 105 112 121 129
172 170 167 165 165 163 160 159 162 163 163 163 163 162 160 159 161 163 165 165 164 163 162 161 159 159 158 159 159 159 158 155 151 147 145 143 142 140 139 136 133 132 131 132 130 128 126 123 123 123 125 125 128 131 132 128 125 123 123 122 119 111 103 95 99 105 111 118 126
170 168 166 164 163 160 157 158 160 161 160 159 161 160 159 159 161 162 162 158 157 157 158 155 153 152 153 153 151 148 146 145 142 140 138 138 138 138 137 136 134 133 132 132 129 126 123 121 122 122 122 123 127 130 131 128 126 126 126 125 124 122 118 113 111 111 113 114 111
167 166 164 162 160 158 157 158 160 160 159 158 160 160 160 159 159 158 154 151 151 152 151 148 148 147 146 144 141 138 136 135 135 134 135 135 135 135 133 132 130 129 127 126 124 122 120 121 123 123 123 123 126 129 132 130 129 130 131 132 132 131 131 128 119 110 102 98 95
164 163 162 159 158 157 157 159 160 160 159 159 161 161 160 157 155 152 148 146 146 146 144 143 143 142 140 138 135 133 132 133 133 133 134 134 133 131 129 127 125 124 122 120 118 118 119 122 125 127 128 127 128 130 133 133 133 135 137 138 137 136 133 129 118 106 97 95 100
161 161 160 157 157 157 158 159 160 160 160 161 162 160 157 153 151 148 145 142 141 141 140 140 140 138 137 134 131 130 131 132 131 132 131 131 129 128 126 124 123 121 118 116 115 117 121 126 129 131 132 132 132 133 135 136 136 138 140 141 141 138 133 128 121 116 115 121 134
160 159 158 156 157 158 159 160 160 160 160 161 160 158 155 151 148 144 141 139 139 139 140 140 139 136 132 130 129 129 129 130 130 130 129 128 126 125 125 124 122 120 118 117 116 119 123 129 132 135 135 136 137 137 137 137 137 139 141 143 142 141 138 136 137 140 144 152 159
160 159 157 156 158 159 159 160 159 159 159 160 159 156 152 149 145 141 139 139 139 140 141 141 139 134 130 127 126 127 127 128 128 128 128 127 126 126 125 125 124 123 122 120 120 122 126 131 134 136 137 138 138 138 138 136 135 135 138 141 142 143 144 147 151 155 159 161 165
159 158 158 158 159 159 159 159 158 158 158 158 156 153 150 146 143 142 142 142 142 141 140 139 136 133 129 127 127 127 127 128 129 129 129 129 129 128 128 127 128 128 127 127 127 127 129 130 132 133 133 134 135 136 135 131 128 126 126 126 128 133 140 146 150 152 154 155 160
159 159 158 159 159 159 158 157 155 155 156 156 154 151 147 144 144 144 144 143 141 138 135 132 130 129 129 130 130 129 129 130 130 130 130 130 131 131 131 131 132 132 132 132 132 132 132 129 127 126 126 127 127 125 123 118 112 105 98 93 93 98 107 118 126 131 137 144 153
159 159 159 159 158 157 156 154 153 153 153 153 150 146 144 142 143 144 142 139 134 130 127 125 126 127 128 129 129 129 128 128 128 128 129 131 131 132 132 132 133 134 134 133 133 133 131 128 127 126 124 122 118 112 105 100 95 89 84 80 79 81 86 93 100 109 118 131 141
159 159 159 158 156 154 153 151 150 150 150 148 144 142 140 141 141 138 135 131 126 124 123 124 125 126 126 126 126 125 125 125 125 127 128 130 130 131 132 132 132 131 130 129 130 130 129 128 127 126 122 118 113 108 101 95 91 87 84 82 81 83 86 91 96 102 109 119 127
158 158 157 155 153 151 150 148 147 146 144 141 139 138 137 136 134 131 128 125 123 122 123 124 125 126 126 125 124 124 123 122 122 124 125 126 127 129 131 131 130 127 125 123 125 126 126 127 125 122 118 114 111 108 104 100 95 91 89 88 88 90 93 97 102 106 109 111 110
157 155 153 151 149 147 146 145 143 141 139 137 135 133 132 130 128 126 124 122 122 123 124 126 127 128 128 127 125 124 122 120 120 120 121 122 123 125 126 127 125 123 121 120 121 123 124 124 122 119 116 113 111 109 108 106 103 100 97 97 98 100 102 107 110 111 108 102 97
153 150 148 147 146 144 142 141 139 137 135 133 131 130 128 126 125 123 123 123 124 125 126 127 128 128 127 126 124 123 121 119 118 118 118 119 119 119 119 120 120 120 120 120 120 120 120 119 119 118 116 114 112 112 111 110 109 108 108 108 109 111 113 116 115 110 102 92 91
149 147 146 145 144 141 139 138 137 135 133 131 130 129 127 125 124 124 125 126 127 127 127 127 126 125 124 122 122 121 121 121 120 120 118 118 117 115 114 113 113 114 116 116 119 120 120 118 118 116 115 114 115 115 115 115 115 116 118 120 121 122 122 121 115 108 101 95 96
146 145 144 144 143 141 138 137 136 134 132 131 129 128 127 126 127 127 128 129 127 126 123 122 121 121 121 120 120 120 121 122 123 123 122 119 115 113 110 107 107 108 111 114 120 121 121 121 120 116 112 111 112 113 113 115 119 123 127 130 130 129 126 123 118 116 117 122 151
144 144 143 143 141 139 137 136 135 133 131 130 128 128 128 129 129 129 128 127 124 121 119 119 119 120 120 120 120 120 121 122 123 124 123 120 116 111 108 106 104 104 110 117 120 121 120 119 116 112 108 106 108 109 109 110 113 118 123 128 128 127 126 125 129 134 144 156 183
144 143 142 141 138 137 136 135 133 131 130 130 129 130 130 131 129 127 125 122 120 119 119 119 120 120 120 120 121 122 122 123 123 122 120 117 114 110 107 105 106 107 112 117 118 118 117 114 111 109 107 106 108 111 112 111 108 107 109 110 108 109 111 116 124 133 143 154 169
144 142 140 138 136 135 134 133 132 132 131 131 130 130 129 127 125 123 121 120 121 121 122 123 122 121 120 120 122 122 122 121 120 116 112 109 108 108 107 108 109 112 115 116 115 114 113 111 110 109 109 108 108 110 111 111 109 106 101 94 90 89 91 96 103 109 110 106 98
143 140 138 136 135 134 133 133 133 133 131 130 128 127 125 123 122 122 123 124 125 126 127 127 125 122 120 121 121 120 117 115 113 110 107 105 104 105 106 107 108 111 114 116 115 113 112 111 112 112 111 110 109 108 107 107 106 102 97 91 88 86 84 84 81 78 76 79 75
140 137 135 134 133 134 134 135 134 132 129 127 125 124 123 123 124 125 127 128 129 130 130 128 125 123 123 123 122 119 116 113 111 109 109 109 108 107 106 105 106 111 115 117 115 114 113 114 115 115 115 113 110 107 103 102 99 97 94 93 89 84 78 67 55 45 38 39 49
137 135 133 132 133 134 135 134 132 130 128 126 125 124 124 125 126 128 129 130 129 127 124 122 121 122 122 122 120 117 115 113 112 112 112 112 111 110 107 105 106 110 114 116 115 114 115 117 119 120 120 118 113 108 104 103 101 100 98 94 85 76 65 53 39 28 21 27 47
134 132 132 132 133 134 134 132 130 128 127 126 126 126 125 126 127 127 127 126 125 123 122 121 121 121 120 118 115 113 112 113 114 115 115 114 113 111 108 105 106 109 112 115 115 116 118 121 122 123 121 117 111 106 104 103 99 94 89 83 77 69 61 54 43 39 40 48 65
132 132 132 133 133 133 132 130 129 128 127 126 126 125 125 124 124 123 123 124 124 125 125 125 125 123 122 119 116 113 112 113 114 114 114 114 113 111 109 107 107 110 113 114 115 116 118 120 120 119 116 112 106 102 99 96 92 86 81 77 73 70 66 63 59 60 62 67 74
132 132 132 133 132 131 130 129 129 127 126 125 125 125 125 124 124 124 125 125 125 125 125 124 123 122 121 119 118 116 115 114 113 113 114 114 113 112 111 110 110 113 114 114 114 114 114 114 114 112 110 107 103 98 94 92 90 86 82 78 72 69 67 67 67 71 75 78 79
133 133 132 132 131 130 130 129 128 127 126 125 124 124 125 125 126 127 127 126 123 121 118 116 115 113 112 112 113 115 115 114 114 114 115 116 115 113 112 112 112 114 114 113 112 111 110 110 110 109 107 103 100 96 94 92 90 87 83 78 72 68 68 71 73 76 79 82 82
134 133 132 131 131 130 130 130 129 127 126 126 126 126 126 126 126 126 126 124 121 118 116 114 112 110 109 109 110 113 115 117 117 117 117 118 117 116 114 114 113 113 114 113 112 111 110 110 109 108 106 102 99 95 94 92 90 86 83 79 75 72 72 74 76 77 78 80 79
134 133 132 131 131 131 131 131 129 128 128 128 128 127 127 126 125 125 125 123 121 119 118 116 114 113 112 112 113 114 116 118 119 119 119 119 119 118 116 115 113 113 114 114 113 112 112 112 112 110 108 103 101 98 95 93 91 88 85 82 79 75 74 76 76 77 78 79 78
133 132 132 131 132 132 132 131 130 129 129 129 128 128 127 126 126 126 126 125 123 122 120 117 116 115 115 115 114 114 115 116 118 119 119 119 118 118 116 114 113 114 115 117 116 116 116 116 115 114 112 107 105 102 100 97 94 91 89 85 80 73 68 68 68 70 74 79 80
133 132 131 131 132 132 132 131 131 130 129 129 128 127 127 126 126 126 126 125 123 122 120 118 117 117 117 116 114 113 112 112 114 115 116 116 116 115 114 113 114 116 118 120 119 119 120 119 118 116 113 109 108 106 104 102 98 95 92 89 82 72 63 58 57 56 61 71 79
132 131 131 131 131 131 131 131 130 130 129 129 128 128 127 126 125 124 123 121 120 119 118 117 117 117 117 115 114 112 111 109 109 110 111 111 111 111 111 111 114 116 118 119 120 122 122 122 119 117 114 108 108 108 107 106 102 98 95 91 86 77 67 57 55 51 50 52 68
131 131 130 130 130 130 130 129 129 128 127 127 127 127 125 124 122 122 121 119 118 117 116 116 116 116 115 114 113 112 111 108 106 105 104 105 105 106 107 108 109 110 112 115 119 122 123 123 121 119 116 112 110 110 109 108 104 101 98 94 90 84 77 66 59 54 48 41 47